Terminal Aerodrome Forecast
Issued by NWS

Home | Current Version | Previous Version | Text Only | Print | Product List | Glossary On
Versions: 1 2 3 4 5 6 7 8 9 10 11 12 13 14 15 16 17 18
000
FTUS45 KRIW 291724
TAFCPR
TAF
KCPR 291724Z 2918/3018 23008KT P6SM FEW090
     FM300300 24008KT P6SM BKN090
     FM300900 23011KT P6SM SCT100 BKN150=

USA.gov is the U.S. government's official web portal to all federal, state and local government web resources and services.